CST,Max TemperatureF,Mean TemperatureF,Min TemperatureF,Max Dew PointF,MeanDew PointF,Min DewpointF,Max Humidity, Mean Humidity, Min Humidity, Max Sea Level PressureIn, Mean Sea Level PressureIn, Min Sea Level PressureIn, Max VisibilityMiles, Mean VisibilityMiles, Min VisibilityMiles, Max Wind SpeedMPH, Mean Wind SpeedMPH, Max Gust SpeedMPH,PrecipitationIn, CloudCover, Events, WindDirDegrees
2014-1-1,1,-3,-8,-8,-11,-17,72,66,59,30.56,30.51,30.47,10,10,10,12,7,21,0.00,8,,18
2014-1-2,4,-3,-10,-9,-13,-16,79,62,44,30.57,30.51,30.44,10,10,9,9,5,14,0.00,2,,326
2014-1-3,29,10,-10,25,7,-16,88,76,63,30.43,29.81,29.43,10,7,1,24,13,31,0.12,7,Rain-Snow,166
2014-1-4,35,17,-2,30,10,-10,89,75,61,30.32,29.87,29.44,10,9,4,28,13,35,0.02,6,Snow,303
2014-1-5,-2,-11,-20,-12,-19,-28,78,67,55,30.45,30.39,30.31,10,9,2,21,13,28,T,3,Snow,305
2014-1-6,-12,-17,-23,-21,-26,-30,73,65,57,30.40,30.33,30.27,10,8,2,22,14,26,T,4,Snow,286
2014-1-7,5,-5,-15,-8,-13,-20,81,69,56,30.33,30.25,30.19,10,10,10,12,5,16,0.00,3,,248
2014-1-8,4,-3,-11,-9,-11,-16,83,70,56,30.54,30.49,30.34,10,10,8,9,2,16,0.00,1,,284
2014-1-9,20,5,-11,14,3,-13,88,75,61,30.50,30.20,29.94,10,8,4,18,10,23,0.00,6,,148
2014-1-10,31,24,16,29,24,12,100,93,85,29.94,29.70,29.49,6,3,0,17,8,23,T,8,Fog-Snow,162
2014-1-11,32,28,23,29,24,21,100,86,72,29.72,29.60,29.46,9,6,3,18,9,23,0.00,6,,266
2014-1-12,40,31,22,31,27,21,96,80,64,29.65,29.47,29.39,10,10,6,14,7,17,0.00,7,,189
2014-1-13,34,31,27,29,23,17,92,75,58,29.69,29.63,29.52,10,8,1,18,9,26,0.01,6,Snow,257
2014-1-14,28,18,7,27,17,1,100,81,61,30.17,29.75,29.47,10,4,0,25,15,32,0.26,7,Fog-Snow,340
2014-1-15,25,12,-1,18,7,-4,88,78,67,30.20,29.86,29.44,10,7,1,18,10,26,0.03,6,Snow,199
2014-1-16,35,21,7,32,15,-2,89,75,61,29.92,29.57,29.35,10,8,1,37,17,45,0.05,8,Snow,289
2014-1-17,13,7,1,4,0,-5,80,69,58,30.10,30.00,29.79,10,10,9,22,10,29,T,4,Snow,294
2014-1-18,23,16,9,13,10,4,92,79,65,29.99,29.74,29.54,10,5,0,22,10,30,0.17,6,Fog-Snow,102
2014-1-19,39,28,17,28,24,13,88,76,64,29.73,29.60,29.47,10,10,10,18,10,24,0.00,6,,268
2014-1-20,31,14,-3,25,8,-15,81,66,51,30.50,30.05,29.70,10,9,1,23,14,31,0.01,7,Snow,356
2014-1-21,6,-3,-13,3,-11,-20,87,72,56,30.55,30.32,30.01,10,8,2,17,6,22,0.01,6,Snow,197
2014-1-22,8,0,-8,3,-5,-16,88,71,53,30.55,30.16,29.95,10,8,2,28,15,36,0.01,6,Snow,303
2014-1-23,2,-7,-17,-7,-15,-22,83,71,59,30.81,30.62,30.23,10,10,6,18,9,22,0.00,2,,258
2014-1-24,33,18,2,31,15,-8,100,75,50,30.18,29.70,29.48,10,8,0,26,13,37,0.08,7,Fog-Snow,249
2014-1-25,24,13,2,6,-5,-10,87,67,46,29.96,29.78,29.54,10,8,0,31,14,38,0.11,4,Fog-Snow,287
2014-1-26,18,5,-8,10,0,-16,88,76,63,30.13,29.59,29.38,10,6,1,35,18,47,0.09,6,Snow,312
2014-1-27,-6,-11,-16,-18,-21,-24,70,61,52,30.51,30.43,30.18,10,10,10,26,13,33,0.00,0,,287
2014-1-28,0,-8,-16,-10,-15,-20,81,69,56,30.46,30.33,30.17,10,10,8,17,8,21,0.00,1,,252
2014-1-29,34,14,-6,17,3,-12,82,62,41,30.16,29.86,29.59,10,10,10,17,7,25,0.00,4,,198
2014-1-30,28,12,-4,23,12,-11,100,78,56,30.12,29.65,29.45,10,4,0,24,11,30,0.44,6,Fog-Snow,349
2014-1-31,9,0,-9,-3,-8,-13,83,70,57,30.23,30.15,30.09,10,10,10,12,6,15,0.00,1,,213